Flag for United Arab Emirates Weather past 2 weeks in Dubai, Dubai, United Arab Emirates

Now
63 °F

Passing clouds.


Feels Like: 63 °F
Forecast: 68 / 78 °F
Wind: 6 mph from Southeast

Location: Dubai International Airport

Current Time: Mar 2, 2015 at 9:11:16 AM

Latest Report: Mar 2, 2015 at 8:00 AM


Visibility: N/A

Pressure: 29.95 "Hg

Humidity: 56%

Dew point: 46 °F

Location of DubaiLocation

Historic Weather in Dubai — Graph

°F

Dubai temperature yesterday

Maximum temperature yesterday: 77 °F (at 3:00 PM)
Minimum temperature yesterday: 61 °F (at 6:00 AM)
Average temperature yesterday: 69 °F

Past Weeks' High & Low Weather Summary

 TemperatureHumidityPressure
High95 °F (Feb 19, 3:00 PM)94% (Feb 16, 5:00 AM)30.09 "Hg (Feb 16, 5:00 AM)
Low59 °F (Mar 2, 5:00 AM)9% (Feb 19, 1:00 PM)29.65 "Hg (Feb 20, 5:00 PM)
Average74 °F43%29.92 "Hg
* Reported Feb 15 8:00 AM — Mar 2 8:00 AM, Dubai, Weather by CustomWeather, © 2015

Note: Actual official high and low records may vary slightly from our data, if they occured in-between our weather recording intervals... More about our weather records

Advertising

Dubai weather history for previous 24 hours

 ConditionsComfort  
Time TempWeatherWind HumidityBarometerVisibility
8:00 AM
Mon, Mar 2
63 °FPassing clouds.6 mph56%29.95 "HgN/A
7:00 AM59 °FSunny.2 mph72%29.92 "Hg10 mi
6:00 AM59 °FClear.5 mph72%29.89 "Hg10 mi
5:00 AM59 °FPassing clouds.3 mph77%29.89 "HgN/A
4:00 AM61 °FPassing clouds.7 mph72%29.89 "HgN/A
3:00 AM63 °FPassing clouds.3 mph68%29.86 "HgN/A
2:00 AM64 °FClear.5 mph64%29.89 "Hg10 mi
1:00 AM68 °FPassing clouds.6 mph56%29.89 "HgN/A
12:00 AM68 °FPassing clouds.7 mph53%29.92 "HgN/A
11:00 PM
Sun, Mar 1
70 °FPassing clouds.5 mph53%29.92 "HgN/A
10:00 PM70 °FPassing clouds.7 mph50%29.92 "HgN/A
9:00 PM70 °FPassing clouds.8 mph50%29.92 "HgN/A
8:00 PM70 °FClear.10 mph53%29.92 "Hg10 mi
7:00 PM72 °FClear.10 mph47%29.92 "Hg10 mi
6:00 PM72 °FSunny.12 mph44%29.89 "Hg10 mi
5:00 PM73 °FSunny.13 mph36%29.89 "Hg10 mi
4:00 PM75 °FPassing clouds.12 mph21%29.89 "HgN/A
3:00 PM77 °FPassing clouds.9 mph21%29.89 "HgN/A
2:00 PM75 °FSunny.7 mph27%29.92 "Hg10 mi
1:00 PM75 °FPassing clouds.9 mph31%29.95 "HgN/A
12:00 PM73 °FSunny.5 mph36%29.98 "Hg10 mi
11:00 AM73 °FPassing clouds.9 mph33%30.01 "HgN/A
10:00 AM72 °FPassing clouds.5 mph33%30.01 "HgN/A
9:00 AM68 °FPassing clouds.3 mph38%30.01 "HgN/A
Weather by CustomWeather, © 2015

See weather overviewHow to use our weather pages